sampling_time,wmo_synop_id,msc_id,stn_nam,stn_elev,lat,long,stn_typ,date_tm,rpt_typ,result_time,crnt_buoy_lat,crnt_buoy_lat_qa_summary,crnt_buoy_long,crnt_buoy_long_qa_summary,avg_air_temp_pst10mts,avg_air_temp_pst10mts_qa_summary,avg_sea_sfc_temp_pst10mts,avg_sea_sfc_temp_pst10mts_qa_summary,avg_batry_volt_pst10mts,avg_batry_volt_pst10mts_qa_summary,avg_solr_panl_crnt_pst10mts,avg_solr_panl_crnt_pst10mts_qa_summary,avg_wtr_lvl_snsr_volt_pst10mts,avg_wtr_lvl_snsr_volt_pst10mts_qa_summary,avg_wave_hgt_pst20mts,avg_wave_hgt_pst20mts_qa_summary,pk_wave_hgt_pst20mts,pk_wave_hgt_pst20mts_qa_summary,sig_wave_pd_pst20mts,sig_wave_pd_pst20mts_qa_summary,sig_wave_hgt_pst20mts,sig_wave_hgt_pst20mts_qa_summary,avg_max_wave_hgt_pst20mts,avg_max_wave_hgt_pst20mts_qa_summary,avg_max_wave_pd_pst20mts,avg_max_wave_pd_pst20mts_qa_summary,avg_wave_pd_pst20mts,avg_wave_pd_pst20mts_qa_summary,pk_wave_pd_pst20mts,pk_wave_pd_pst20mts_qa_summary,avg_stn_pres_pst10mts,avg_stn_pres_pst10mts_qa_summary,avg_wnd_spd_pst10mts,avg_wnd_spd_pst10mts_qa_summary,avg_wnd_dir_pst10mts,avg_wnd_dir_pst10mts_qa_summary,max_avg_wnd_spd_pst10mts,max_avg_wnd_spd_pst10mts_qa_summary,wnd_snsr_vert_disp,wnd_snsr_vert_disp_qa_summary,pres_tend_amt_pst3hrs,pres_tend_amt_pst3hrs_data_flag,pres_tend_char_pst3hrs,pres_tend_char_pst3hrs_data_flag,avg_mslp_pst10mts,avg_mslp_pst10mts_data_flag,avg_stn_pres_pst10mts_1,avg_stn_pres_pst10mts_1_qa_summary,avg_stn_pres_pst10mts_2,avg_stn_pres_pst10mts_2_qa_summary,avg_wnd_spd_pst10mts_1,avg_wnd_spd_pst10mts_1_qa_summary,avg_wnd_spd_pst10mts_2,avg_wnd_spd_pst10mts_2_qa_summary,avg_wnd_dir_pst10mts_1,avg_wnd_dir_pst10mts_1_qa_summary,avg_wnd_dir_pst10mts_2,avg_wnd_dir_pst10mts_2_qa_summary,max_avg_wnd_spd_pst10mts_1,max_avg_wnd_spd_pst10mts_1_qa_summary,max_avg_wnd_spd_pst10mts_2,max_avg_wnd_spd_pst10mts_2_qa_summary
2021-10-31T00:00:00Z,44488,9302000,EAST CHEDABUCTO BAY,0,45.445,-60.9538,18,2021-10-31T00:00:00.000Z,108,2021-10-31T00:03:44.355Z,45.4455,100,-60.95441999999999,100,9.3,100,12.3,100,12.6,100,0.0,100,3.6,100,1.2,100,3.3,100,9.1,100,1.9,100,2.4,100,9.0,100,7.1,100,10.5,100,1021.1,100,16.2,100,95,100,24.5,100,5,100,1.7,1,1,1,1021.1,1,1021.1,100,1021.1,100,16.2,100,15.5,100,95,100,98,100,24.5,100,23.8,100
2021-10-31T00:10:00Z,44488,9302000,EAST CHEDABUCTO BAY,0,45.445,-60.9538,18,2021-10-31T00:10:00.000Z,110,2021-10-31T00:13:53.359Z,,-1,,-1,10.2,100,13.1,100,12.7,100,0.0,100,3.6,100,,-1,,-1,,-1,,-1,,-1,,-1,,-1,,-1,1021.0,100,17.6,100,90,100,20.9,100,5,100,1.6,1,1,1,1021.0,1,1021.0,100,1021.0,100,17.6,100,16.9,100,90,100,93,100,20.9,100,20.5,100
2021-10-31T00:20:00Z,44488,9302000,EAST CHEDABUCTO BAY,0,45.445,-60.9538,18,2021-10-31T00:20:00.000Z,110,2021-10-31T00:24:06.145Z,45.445479999999996,100,-60.95443,100,9.3,100,12.3,100,12.7,100,0.0,100,3.6,100,,-1,,-1,,-1,,-1,,-1,,-1,,-1,,-1,1021.1,100,17.6,100,94,100,28.4,100,5,100,1.8,1,1,1,1021.1,1,1021.1,100,1021.1,100,17.6,100,16.9,100,94,100,97,100,28.4,100,27.4,100
2021-10-31T00:30:00Z,44488,9302000,EAST CHEDABUCTO BAY,0,45.445,-60.9538,18,2021-10-31T00:30:00.000Z,110,2021-10-31T00:33:12.626Z,45.44548,100,-60.95443,100,9.0,100,12.3,100,12.6,100,0.0,100,3.6,100,,-1,,-1,,-1,,-1,,-1,,-1,,-1,,-1,1021.1,100,18.0,100,94,100,23.4,100,5,100,1.7,1,1,1,1021.1,1,1021.1,100,1021.1,100,18.0,100,16.9,100,94,100,98,100,23.4,100,22.0,100
2021-10-31T00:40:00Z,44488,9302000,EAST CHEDABUCTO BAY,0,45.445,-60.9538,18,2021-10-31T00:40:00.000Z,110,2021-10-31T00:43:26.964Z,45.445479999999996,100,-60.95445,100,9.0,100,12.3,100,12.6,100,0.0,100,3.6,100,,-1,,-1,,-1,,-1,,-1,,-1,,-1,,-1,1021.3,100,18.4,100,94,100,23.0,100,5,100,1.8,1,1,1,1021.3,1,1021.3,100,1021.3,100,18.4,100,17.3,100,94,100,97,100,23.0,100,22.0,100
2021-10-31T00:50:00Z,44488,9302000,EAST CHEDABUCTO BAY,0,45.445,-60.9538,18,2021-10-31T00:50:00.000Z,110,2021-10-31T00:53:35.933Z,45.44548,100,-60.95441999999999,100,9.0,100,12.3,100,12.6,100,0.0,100,3.6,100,,-1,,-1,,-1,,-1,,-1,,-1,,-1,,-1,1021.3,100,18.0,100,90,100,26.6,100,5,100,1.7,1,1,1,1021.3,1,1021.3,100,1021.3,100,18.0,100,17.3,100,90,100,93,100,26.6,100,23.8,100
2021-10-31T01:00:00Z,44488,9302000,EAST CHEDABUCTO BAY,0,45.445,-60.9538,18,2021-10-31T01:00:00.000Z,108,2021-10-31T01:03:50.577Z,45.4455,100,-60.95441999999999,100,9.1,100,12.3,100,12.6,100,0.0,100,3.6,100,1.2,100,2.8,100,8.8,100,1.9,100,2.4,100,9.0,100,7.1,100,10.5,100,1021.0,100,16.2,100,95,100,22.3,100,5,100,1.1,1,1,1,1021.0,1,1021.0,100,1021.0,100,16.2,100,15.5,100,95,100,98,100,22.3,100,21.2,100
2021-10-31T01:10:00Z,44488,9302000,EAST CHEDABUCTO BAY,0,45.445,-60.9538,18,2021-10-31T01:10:00.000Z,110,2021-10-31T01:16:51.875Z,45.44548,100,-60.95441999999999,100,9.6,100,12.3,100,12.6,100,0.0,100,3.6,100,,-1,,-1,,-1,,-1,,-1,,-1,,-1,,-1,1021.0,100,18.0,100,102,100,23.8,100,5,100,0.9,1,1,1,1021.0,1,1021.0,100,1021.0,100,18.0,100,17.3,100,102,100,106,100,23.8,100,23.4,100
2021-10-31T01:20:00Z,44488,9302000,EAST CHEDABUCTO BAY,0,45.445,-60.9538,18,2021-10-31T01:20:00.000Z,110,2021-10-31T01:24:01.493Z,45.4455,100,-60.95445,100,9.5,100,12.3,100,12.6,100,0.0,100,3.6,100,,-1,,-1,,-1,,-1,,-1,,-1,,-1,,-1,1020.8,100,17.3,100,101,100,25.6,100,5,100,0.4,1,0,1,1020.8,1,1020.8,100,1020.8,100,17.3,100,16.9,100,101,100,104,100,25.6,100,25.9,100
2021-10-31T01:30:00Z,44488,9302000,EAST CHEDABUCTO BAY,0,45.445,-60.9538,18,2021-10-31T01:30:00.000Z,110,2021-10-31T01:35:03.052Z,45.4455,100,-60.95443,100,9.5,100,12.3,100,12.6,100,0.0,100,3.6,100,,-1,,-1,,-1,,-1,,-1,,-1,,-1,,-1,1020.5,100,18.7,100,85,100,24.5,100,5,100,0.2,1,0,1,1020.5,1,1020.5,100,1020.5,100,18.7,100,18.4,100,85,100,89,100,24.5,100,23.8,100
2021-10-31T01:40:00Z,44488,9302000,EAST CHEDABUCTO BAY,0,45.445,-60.9538,18,2021-10-31T01:40:00.000Z,110,2021-10-31T01:43:15.827Z,45.445479999999996,100,-60.95445,100,9.4,100,12.3,100,12.6,100,0.0,100,3.6,100,,-1,,-1,,-1,,-1,,-1,,-1,,-1,,-1,1020.6,100,15.8,100,90,100,22.7,100,5,100,-0.2,1,8,1,1020.6,1,1020.6,100,1020.6,100,15.8,100,15.1,100,90,100,94,100,22.7,100,21.6,100
2021-10-31T01:50:00Z,44488,9302000,EAST CHEDABUCTO BAY,0,45.445,-60.9538,18,2021-10-31T01:50:00.000Z,110,2021-10-31T01:54:41.850Z,45.44548,100,-60.95446999999999,100,9.6,100,12.3,100,12.6,100,0.0,100,3.6,100,,-1,,-1,,-1,,-1,,-1,,-1,,-1,,-1,1020.5,100,16.9,100,86,100,25.9,100,5,100,-0.6,1,8,1,1020.5,1,1020.5,100,1020.5,100,16.9,100,16.2,100,86,100,89,100,25.9,100,24.8,100
2021-10-31T02:00:00Z,44488,9302000,EAST CHEDABUCTO BAY,0,45.445,-60.9538,18,2021-10-31T02:00:00.000Z,108,2021-10-31T02:03:56.163Z,45.44552,100,-60.95446999999999,100,9.5,100,12.3,100,12.6,100,0.0,100,3.6,100,1.1,100,2.6,100,9.0,100,1.7,100,2.0,100,9.1,100,6.6,100,9.5,100,1020.7,100,17.6,100,82,100,27.7,100,5,100,-0.3,1,8,1,1020.7,1,1020.7,100,1020.7,100,17.6,100,16.9,100,82,100,85,100,27.7,100,27.0,100
2021-10-31T02:10:00Z,44488,9302000,EAST CHEDABUCTO BAY,0,45.445,-60.9538,18,2021-10-31T02:10:00.000Z,110,2021-10-31T02:17:01.334Z,45.44547,100,-60.95448,100,9.6,100,12.3,100,12.6,100,0.0,100,3.6,100,,-1,,-1,,-1,,-1,,-1,,-1,,-1,,-1,1020.9,100,17.3,100,99,100,22.0,100,5,100,0.1,1,0,1,1020.9,1,1020.9,100,1020.9,100,17.3,100,16.9,100,99,100,102,100,22.0,100,22.0,100
2021-10-31T02:20:00Z,44488,9302000,EAST CHEDABUCTO BAY,0,45.445,-60.9538,18,2021-10-31T02:20:00.000Z,110,2021-10-31T02:24:17.625Z,45.445479999999996,100,-60.9545,100,9.4,100,12.3,100,12.6,100,0.0,100,3.6,100,,-1,,-1,,-1,,-1,,-1,,-1,,-1,,-1,1020.8,100,21.6,100,104,100,29.5,100,5,100,0.1,1,1,1,1020.8,1,1020.8,100,1020.8,100,21.6,100,20.9,100,104,100,107,100,29.5,100,29.9,100
2021-10-31T02:30:00Z,44488,9302000,EAST CHEDABUCTO BAY,0,45.445,-60.9538,18,2021-10-31T02:30:00.000Z,110,2021-10-31T02:33:14.255Z,45.44548,100,-60.95448,100,9.0,100,12.4,100,12.6,100,0.0,100,3.6,100,,-1,,-1,,-1,,-1,,-1,,-1,,-1,,-1,1021.0,100,19.1,100,105,100,27.0,100,5,100,0.1,1,3,1,1021.0,1,1021.0,100,1021.0,100,19.1,100,18.4,100,105,100,108,100,27.0,100,27.0,100
2021-10-31T02:40:00Z,44488,9302000,EAST CHEDABUCTO BAY,0,45.445,-60.9538,18,2021-10-31T02:40:00.000Z,110,2021-10-31T02:44:17.201Z,45.44552,100,-60.9545,100,9.3,100,12.4,100,12.5,100,0.0,100,3.6,100,,-1,,-1,,-1,,-1,,-1,,-1,,-1,,-1,1021.1,100,17.3,100,93,100,23.4,100,5,100,-0.1,1,5,1,1021.1,1,1021.1,100,1021.1,100,17.3,100,16.6,100,93,100,96,100,23.4,100,22.7,100
2021-10-31T02:50:00Z,44488,9302000,EAST CHEDABUCTO BAY,0,45.445,-60.9538,18,2021-10-31T02:50:00.000Z,110,2021-10-31T02:53:39.548Z,45.44547,100,-60.95448,100,9.6,100,12.4,100,12.5,100,0.0,100,3.6,100,,-1,,-1,,-1,,-1,,-1,,-1,,-1,,-1,1020.8,100,19.8,100,98,100,26.6,100,5,100,-0.4,1,5,1,1020.8,1,1020.8,100,1020.8,100,19.8,100,19.1,100,98,100,102,100,26.6,100,26.3,100
2021-10-31T03:00:00Z,44488,9302000,EAST CHEDABUCTO BAY,0,45.445,-60.9538,18,2021-10-31T03:00:00.000Z,108,2021-10-31T03:03:35.498Z,45.44547,100,-60.9545,100,9.5,100,12.4,100,12.6,100,0.0,100,3.6,100,1.1,100,3.6,100,8.5,100,1.7,100,2.2,100,8.8,100,6.8,100,10.5,100,1020.7,100,16.6,100,91,100,24.1,100,5,100,-0.4,1,6,1,1020.7,1,1020.7,100,1020.7,100,16.6,100,16.2,100,91,100,94,100,24.1,100,23.4,100
2021-10-31T03:10:00Z,44488,9302000,EAST CHEDABUCTO BAY,0,45.445,-60.9538,18,2021-10-31T03:10:00.000Z,110,2021-10-31T03:16:46.548Z,45.44545,100,-60.95446999999999,100,9.6,100,12.4,100,12.6,100,0.0,100,3.6,100,,-1,,-1,,-1,,-1,,-1,,-1,,-1,,-1,1020.4,100,19.1,100,97,100,25.2,100,5,100,-0.7,1,8,1,1020.4,1,1020.4,100,1020.4,100,19.1,100,18.4,100,97,100,100,100,25.2,100,24.1,100
2021-10-31T03:20:00Z,44488,9302000,EAST CHEDABUCTO BAY,0,45.445,-60.9538,18,2021-10-31T03:20:00.000Z,110,2021-10-31T03:23:56.683Z,45.445479999999996,100,-60.954519999999995,100,9.6,100,12.4,100,12.6,100,0.0,100,3.6,100,,-1,,-1,,-1,,-1,,-1,,-1,,-1,,-1,1020.2,100,19.4,100,92,100,25.2,100,5,100,-0.9,1,8,1,1020.2,1,1020.2,100,1020.2,100,19.4,100,18.7,100,92,100,95,100,25.2,100,24.5,100
2021-10-31T03:30:00Z,44488,9302000,EAST CHEDABUCTO BAY,0,45.445,-60.9538,18,2021-10-31T03:30:00.000Z,110,2021-10-31T03:34:01.390Z,45.44552,100,-60.95452,100,9.7,100,12.4,100,12.6,100,0.0,100,3.6,100,,-1,,-1,,-1,,-1,,-1,,-1,,-1,,-1,1020.5,100,19.1,100,109,100,24.5,100,5,100,-0.7,1,7,1,1020.5,1,1020.5,100,1020.5,100,19.1,100,18.7,100,109,100,112,100,24.5,100,24.1,100
2021-10-31T03:40:00Z,44488,9302000,EAST CHEDABUCTO BAY,0,45.445,-60.9538,18,2021-10-31T03:40:00.000Z,110,2021-10-31T03:43:12.170Z,45.445479999999996,100,-60.954519999999995,100,9.7,100,12.4,100,12.5,100,0.0,100,3.6,100,,-1,,-1,,-1,,-1,,-1,,-1,,-1,,-1,1020.6,100,18.7,100,100,100,27.0,100,5,100,-0.8,1,6,1,1020.6,1,1020.6,100,1020.6,100,18.7,100,18.0,100,100,100,103,100,27.0,100,24.8,100
2021-10-31T03:50:00Z,44488,9302000,EAST CHEDABUCTO BAY,0,45.445,-60.9538,18,2021-10-31T03:50:00.000Z,110,2021-10-31T03:53:16.935Z,45.44552,100,-60.95455,100,9.7,100,12.3,100,12.5,100,0.0,100,3.6,100,,-1,,-1,,-1,,-1,,-1,,-1,,-1,,-1,1020.3,100,20.9,100,100,100,29.9,100,5,100,-1.0,1,6,1,1020.3,1,1020.3,100,1020.3,100,20.9,100,19.8,100,100,100,104,100,29.9,100,28.8,100
2021-10-31T04:00:00Z,44488,9302000,EAST CHEDABUCTO BAY,0,45.445,-60.9538,18,2021-10-31T04:00:00.000Z,108,2021-10-31T04:03:37.848Z,45.44547,100,-60.9545,100,9.8,100,12.3,100,12.5,100,0.0,100,3.6,100,1.1,100,2.8,100,8.9,100,1.8,100,2.3,100,9.1,100,7.0,100,10.0,100,1020.4,100,22.3,100,104,100,28.8,100,5,100,-0.6,1,6,1,1020.4,1,1020.4,100,1020.4,100,22.3,100,21.6,100,104,100,107,100,28.8,100,27.7,100
2021-10-31T04:10:00Z,44488,9302000,EAST CHEDABUCTO BAY,0,45.445,-60.9538,18,2021-10-31T04:10:00.000Z,110,2021-10-31T04:16:33.986Z,45.44548,100,-60.95448,100,9.8,100,12.3,100,12.6,100,0.0,100,3.6,100,,-1,,-1,,-1,,-1,,-1,,-1,,-1,,-1,1020.4,100,18.7,100,109,100,28.1,100,5,100,-0.7,1,6,1,1020.4,1,1020.4,100,1020.4,100,18.7,100,18.0,100,109,100,112,100,28.1,100,28.1,100
2021-10-31T04:20:00Z,44488,9302000,EAST CHEDABUCTO BAY,0,45.445,-60.9538,18,2021-10-31T04:20:00.000Z,110,2021-10-31T04:23:49.986Z,45.44547,100,-60.95446999999999,100,10.0,100,12.3,100,12.6,100,0.0,100,3.6,100,,-1,,-1,,-1,,-1,,-1,,-1,,-1,,-1,1020.1,100,21.2,100,99,100,31.0,100,5,100,-0.7,1,8,1,1020.1,1,1020.1,100,1020.1,100,21.2,100,20.5,100,99,100,102,100,31.0,100,29.5,100
2021-10-31T04:30:00Z,44488,9302000,EAST CHEDABUCTO BAY,0,45.445,-60.9538,18,2021-10-31T04:30:00.000Z,110,2021-10-31T04:33:53.962Z,45.44547,100,-60.9545,100,9.9,100,12.4,100,12.5,100,0.0,100,3.6,100,,-1,,-1,,-1,,-1,,-1,,-1,,-1,,-1,1020.0,100,23.4,100,99,100,29.9,100,5,100,-0.5,1,8,1,1020.0,1,1020.0,100,1020.0,100,23.4,100,22.3,100,99,100,102,100,29.9,100,28.1,100
2021-10-31T04:40:00Z,44488,9302000,EAST CHEDABUCTO BAY,0,45.445,-60.9538,18,2021-10-31T04:40:00.000Z,110,2021-10-31T04:44:09.751Z,45.4455,100,-60.954480000000004,100,9.8,100,12.4,100,12.5,100,0.0,100,3.6,100,,-1,,-1,,-1,,-1,,-1,,-1,,-1,,-1,1020.1,100,21.2,100,97,100,30.6,100,5,100,-0.5,1,8,1,1020.1,1,1020.1,100,1020.1,100,21.2,100,20.5,100,97,100,100,100,30.6,100,29.9,100
2021-10-31T04:50:00Z,44488,9302000,EAST CHEDABUCTO BAY,0,45.445,-60.9538,18,2021-10-31T04:50:00.000Z,110,2021-10-31T04:53:25.875Z,45.44548,100,-60.9545,100,9.9,100,12.4,100,12.5,100,0.0,100,3.6,100,,-1,,-1,,-1,,-1,,-1,,-1,,-1,,-1,1019.8,100,24.1,100,91,100,34.9,100,5,100,-0.7,1,8,1,1019.8,1,1019.8,100,1019.8,100,24.1,100,22.7,100,91,100,94,100,34.9,100,33.5,100
2021-10-31T05:00:00Z,44488,9302000,EAST CHEDABUCTO BAY,0,45.445,-60.9538,18,2021-10-31T05:00:00.000Z,108,2021-10-31T05:03:34.101Z,45.4455,100,-60.954480000000004,100,9.9,100,12.4,100,12.5,100,0.0,100,3.6,100,1.0,100,2.9,100,8.5,100,1.6,100,2.0,100,8.4,100,6.3,100,10.0,100,1019.7,100,26.3,100,93,100,33.5,100,5,100,-1.0,1,8,1,1019.7,1,1019.7,100,1019.7,100,26.3,100,24.8,100,93,100,96,100,33.5,100,32.0,100
2021-10-31T05:10:00Z,44488,9302000,EAST CHEDABUCTO BAY,0,45.445,-60.9538,18,2021-10-31T05:10:00.000Z,110,2021-10-31T05:16:31.721Z,45.44548,100,-60.9545,100,9.8,100,12.4,100,12.6,100,0.0,100,3.6,100,,-1,,-1,,-1,,-1,,-1,,-1,,-1,,-1,1019.6,100,27.0,100,101,100,32.0,100,5,100,-1.2,1,8,1,1019.6,1,1019.6,100,1019.6,100,27.0,100,25.6,100,101,100,104,100,32.0,100,31.3,100
2021-10-31T05:20:00Z,44488,9302000,EAST CHEDABUCTO BAY,0,45.445,-60.9538,18,2021-10-31T05:20:00.000Z,110,2021-10-31T05:26:38.640Z,45.445479999999996,100,-60.954519999999995,100,9.7,100,12.4,100,12.5,100,0.0,100,3.6,100,,-1,,-1,,-1,,-1,,-1,,-1,,-1,,-1,1019.6,100,25.2,100,98,100,31.3,100,5,100,-1.3,1,7,1,1019.6,1,1019.6,100,1019.5,100,25.2,100,24.1,100,98,100,101,100,31.3,100,29.9,100
2021-10-31T05:30:00Z,44488,9302000,EAST CHEDABUCTO BAY,0,45.445,-60.9538,18,2021-10-31T05:30:00.000Z,110,2021-10-31T05:33:48.471Z,45.44548,100,-60.95448,100,9.7,100,12.4,100,12.5,100,0.0,100,3.6,100,,-1,,-1,,-1,,-1,,-1,,-1,,-1,,-1,1019.5,100,28.1,100,99,100,37.8,100,5,100,-1.6,1,7,1,1019.5,1,1019.5,100,1019.5,100,28.1,100,26.6,100,99,100,102,100,37.8,100,37.4,100
2021-10-31T05:40:00Z,44488,9302000,EAST CHEDABUCTO BAY,0,45.445,-60.9538,18,2021-10-31T05:40:00.000Z,110,2021-10-31T05:43:47.034Z,45.4455,100,-60.954519999999995,100,9.7,100,12.4,100,12.5,100,0.0,100,3.6,100,,-1,,-1,,-1,,-1,,-1,,-1,,-1,,-1,1019.6,100,24.1,100,101,100,32.0,100,5,100,-1.5,1,7,1,1019.6,1,1019.6,100,1019.6,100,24.1,100,22.7,100,101,100,104,100,32.0,100,29.9,100
2021-10-31T05:50:00Z,44488,9302000,EAST CHEDABUCTO BAY,0,45.445,-60.9538,18,2021-10-31T05:50:00.000Z,110,2021-10-31T05:54:03.800Z,45.44547,100,-60.95448,100,9.9,100,12.4,100,12.5,100,0.0,100,3.6,100,,-1,,-1,,-1,,-1,,-1,,-1,,-1,,-1,1019.5,100,24.8,100,104,100,31.0,100,5,100,-1.3,1,6,1,1019.5,1,1019.5,100,1019.5,100,24.8,100,23.8,100,104,100,107,100,31.0,100,29.9,100
2021-10-31T06:00:00Z,44488,9302000,EAST CHEDABUCTO BAY,0,45.445,-60.9538,18,2021-10-31T06:00:00.000Z,108,2021-10-31T06:04:07.234Z,45.445479999999996,100,-60.9545,100,9.7,100,12.4,100,12.5,100,0.0,100,3.6,100,1.1,100,2.9,100,8.5,100,1.7,100,2.2,100,8.3,100,6.4,100,9.1,100,1019.4,100,25.9,100,101,100,34.2,100,5,100,-1.2,1,7,1,1019.4,1,1019.4,100,1019.4,100,25.9,100,24.8,100,101,100,104,100,34.2,100,33.5,100
2021-10-31T06:10:00Z,44488,9302000,EAST CHEDABUCTO BAY,0,45.445,-60.9538,18,2021-10-31T06:10:00.000Z,110,2021-10-31T06:17:12.048Z,45.44548,100,-60.95452,100,9.5,100,12.4,100,12.5,100,0.0,100,3.6,100,,-1,,-1,,-1,,-1,,-1,,-1,,-1,,-1,1019.3,100,27.4,100,97,100,35.3,100,5,100,-1.1,1,8,1,1019.3,1,1019.3,100,1019.3,100,27.4,100,25.9,100,97,100,100,100,35.3,100,33.5,100
2021-10-31T06:20:00Z,44488,9302000,EAST CHEDABUCTO BAY,0,45.445,-60.9538,18,2021-10-31T06:20:00.000Z,110,2021-10-31T06:23:17.313Z,45.4455,100,-60.95446999999999,100,9.6,100,12.4,100,12.5,100,0.0,100,3.6,100,,-1,,-1,,-1,,-1,,-1,,-1,,-1,,-1,1019.2,100,26.3,100,98,100,33.8,100,5,100,-1.0,1,8,1,1019.2,1,1019.2,100,1019.2,100,26.3,100,25.2,100,98,100,101,100,33.8,100,32.8,100
2021-10-31T06:30:00Z,44488,9302000,EAST CHEDABUCTO BAY,0,45.445,-60.9538,18,2021-10-31T06:30:00.000Z,110,2021-10-31T06:34:23.898Z,45.44545,100,-60.95445,100,9.4,100,12.3,100,12.5,100,0.0,100,3.6,100,,-1,,-1,,-1,,-1,,-1,,-1,,-1,,-1,1019.1,100,27.0,100,95,100,33.8,100,5,100,-1.4,1,7,1,1019.1,1,1019.1,100,1019.1,100,27.0,100,25.9,100,95,100,98,100,33.8,100,32.4,100
2021-10-31T06:40:00Z,44488,9302000,EAST CHEDABUCTO BAY,0,45.445,-60.9538,18,2021-10-31T06:40:00.000Z,110,2021-10-31T06:43:26.468Z,45.4455,100,-60.954480000000004,100,9.4,100,12.3,100,12.5,100,0.0,100,3.6,100,,-1,,-1,,-1,,-1,,-1,,-1,,-1,,-1,1019.0,100,27.4,100,101,100,35.3,100,5,100,-1.6,1,7,1,1019.0,1,1019.0,100,1019.0,100,27.4,100,25.9,100,101,100,104,100,35.3,100,34.2,100
2021-10-31T06:50:00Z,44488,9302000,EAST CHEDABUCTO BAY,0,45.445,-60.9538,18,2021-10-31T06:50:00.000Z,110,2021-10-31T06:53:27.192Z,45.44548,100,-60.95445,100,9.5,100,12.3,100,12.5,100,0.0,100,3.6,100,,-1,,-1,,-1,,-1,,-1,,-1,,-1,,-1,1019.4,100,24.5,100,101,100,30.2,100,5,100,-1.0,1,6,1,1019.4,1,1019.4,100,1019.3,100,24.5,100,23.0,100,101,100,104,100,30.2,100,29.2,100
2021-10-31T07:00:00Z,44488,9302000,EAST CHEDABUCTO BAY,0,45.445,-60.9538,18,2021-10-31T07:00:00.000Z,108,2021-10-31T07:03:47.580Z,45.4455,100,-60.95443,100,9.8,100,12.3,100,12.5,100,0.0,100,3.6,100,1.1,100,3.0,100,8.4,100,1.7,100,2.2,100,8.4,100,6.0,100,10.0,100,1019.4,100,25.6,100,115,100,32.4,100,5,100,-1.1,1,6,1,1019.4,1,1019.4,100,1019.3,100,25.6,100,24.1,100,115,100,119,100,32.4,100,30.6,100
2021-10-31T07:10:00Z,44488,9302000,EAST CHEDABUCTO BAY,0,45.445,-60.9538,18,2021-10-31T07:10:00.000Z,110,2021-10-31T07:16:48.347Z,45.44552,100,-60.95445,100,9.6,100,12.3,100,12.5,100,0.0,100,3.6,100,,-1,,-1,,-1,,-1,,-1,,-1,,-1,,-1,1019.3,100,24.1,100,114,100,31.0,100,5,100,-1.1,1,6,1,1019.3,1,1019.3,100,1019.3,100,24.1,100,23.0,100,114,100,117,100,31.0,100,29.9,100
2021-10-31T07:20:00Z,44488,9302000,EAST CHEDABUCTO BAY,0,45.445,-60.9538,18,2021-10-31T07:20:00.000Z,110,2021-10-31T07:23:52.669Z,45.4455,100,-60.95446999999999,100,9.7,100,12.3,100,12.5,100,0.0,100,3.6,100,,-1,,-1,,-1,,-1,,-1,,-1,,-1,,-1,1019.2,100,25.2,100,109,100,34.6,100,5,100,-1.0,1,6,1,1019.2,1,1019.2,100,1019.2,100,25.2,100,23.8,100,109,100,112,100,34.6,100,32.8,100
2021-10-31T07:30:00Z,44488,9302000,EAST CHEDABUCTO BAY,0,45.445,-60.9538,18,2021-10-31T07:30:00.000Z,110,2021-10-31T07:33:52.359Z,45.4455,100,-60.95445,100,9.8,100,12.3,100,12.5,100,0.0,100,3.6,100,,-1,,-1,,-1,,-1,,-1,,-1,,-1,,-1,1019.0,100,25.2,100,109,100,31.0,100,5,100,-1.0,1,6,1,1019.0,1,1019.0,100,1019.0,100,25.2,100,24.1,100,109,100,113,100,31.0,100,29.9,100
2021-10-31T07:40:00Z,44488,9302000,EAST CHEDABUCTO BAY,0,45.445,-60.9538,18,2021-10-31T07:40:00.000Z,110,2021-10-31T07:44:02.670Z,45.4455,100,-60.95443,100,9.5,100,12.3,100,12.5,100,0.0,100,3.6,100,,-1,,-1,,-1,,-1,,-1,,-1,,-1,,-1,1018.9,100,25.2,100,106,100,31.7,100,5,100,-1.2,1,6,1,1018.9,1,1018.9,100,1018.9,100,25.2,100,23.8,100,106,100,109,100,31.7,100,29.5,100
2021-10-31T07:50:00Z,44488,9302000,EAST CHEDABUCTO BAY,0,45.445,-60.9538,18,2021-10-31T07:50:00.000Z,110,2021-10-31T07:53:58.329Z,45.44552,100,-60.95448,100,9.5,100,12.3,100,12.5,100,0.0,100,3.6,100,,-1,,-1,,-1,,-1,,-1,,-1,,-1,,-1,1018.8,100,24.8,100,102,100,32.0,100,5,100,-1.0,1,8,1,1018.8,1,1018.8,100,1018.8,100,24.8,100,23.4,100,102,100,105,100,32.0,100,31.0,100
2021-10-31T08:00:00Z,44488,9302000,EAST CHEDABUCTO BAY,0,45.445,-60.9538,18,2021-10-31T08:00:00.000Z,108,2021-10-31T08:03:13.429Z,45.4455,100,-60.95445,100,9.3,100,12.3,100,12.5,100,0.0,100,3.6,100,1.1,100,2.4,100,8.6,100,1.8,100,2.1,100,8.6,100,6.1,100,10.0,100,1019.0,100,24.5,100,112,100,33.1,100,5,100,-0.7,1,8,1,1019.0,1,1019.0,100,1019.0,100,24.5,100,23.4,100,112,100,116,100,33.1,100,31.7,100
2021-10-31T08:10:00Z,44488,9302000,EAST CHEDABUCTO BAY,0,45.445,-60.9538,18,2021-10-31T08:10:00.000Z,110,2021-10-31T08:17:27.970Z,45.4455,100,-60.95446999999999,100,9.2,100,12.3,100,12.5,100,0.0,100,3.6,100,,-1,,-1,,-1,,-1,,-1,,-1,,-1,,-1,1018.8,100,28.1,100,115,100,36.0,100,5,100,-0.9,1,8,1,1018.8,1,1018.8,100,1018.8,100,28.1,100,27.0,100,115,100,118,100,36.0,100,34.2,100
2021-10-31T08:20:00Z,44488,9302000,EAST CHEDABUCTO BAY,0,45.445,-60.9538,18,2021-10-31T08:20:00.000Z,110,2021-10-31T08:23:38.878Z,45.4455,100,-60.95446999999999,100,9.5,100,12.3,100,12.5,100,0.0,100,3.6,100,,-1,,-1,,-1,,-1,,-1,,-1,,-1,,-1,1018.8,100,27.4,100,116,100,33.8,100,5,100,-0.8,1,8,1,1018.8,1,1018.8,100,1018.7,100,27.4,100,26.3,100,116,100,119,100,33.8,100,33.8,100
2021-10-31T08:30:00Z,44488,9302000,EAST CHEDABUCTO BAY,0,45.445,-60.9538,18,2021-10-31T08:30:00.000Z,110,2021-10-31T08:34:40.263Z,45.44552,100,-60.95445,100,9.8,100,12.3,100,12.5,100,0.0,100,3.6,100,,-1,,-1,,-1,,-1,,-1,,-1,,-1,,-1,1018.8,100,27.4,100,112,100,33.5,100,5,100,-0.7,1,6,1,1018.8,1,1018.8,100,1018.8,100,27.4,100,25.6,100,112,100,115,100,33.5,100,32.8,100
2021-10-31T08:40:00Z,44488,9302000,EAST CHEDABUCTO BAY,0,45.445,-60.9538,18,2021-10-31T08:40:00.000Z,110,2021-10-31T08:43:36.255Z,45.445479999999996,100,-60.95441999999999,100,9.7,100,12.3,100,12.5,100,0.0,100,3.6,100,,-1,,-1,,-1,,-1,,-1,,-1,,-1,,-1,1018.8,100,28.1,100,118,100,35.6,100,5,100,-0.8,1,6,1,1018.8,1,1018.8,100,1018.8,100,28.1,100,27.0,100,118,100,121,100,35.6,100,33.8,100
2021-10-31T08:50:00Z,44488,9302000,EAST CHEDABUCTO BAY,0,45.445,-60.9538,18,2021-10-31T08:50:00.000Z,110,2021-10-31T08:53:39.572Z,45.44552,100,-60.95445,100,9.5,100,12.3,100,12.5,100,0.0,100,3.6,100,,-1,,-1,,-1,,-1,,-1,,-1,,-1,,-1,1018.7,100,27.4,100,106,100,32.8,100,5,100,-0.9,1,7,1,1018.7,1,1018.7,100,1018.7,100,27.4,100,25.9,100,106,100,110,100,32.8,100,31.0,100
2021-10-31T09:00:00Z,44488,9302000,EAST CHEDABUCTO BAY,0,45.445,-60.9538,18,2021-10-31T09:00:00.000Z,108,2021-10-31T09:03:41.726Z,45.44553,100,-60.95445,100,9.5,100,12.3,100,12.5,100,0.0,100,3.6,100,1.1,100,2.9,100,7.9,100,1.7,100,2.2,100,8.3,100,5.7,100,9.5,100,1018.5,100,28.1,100,98,100,33.5,100,5,100,-1.0,1,8,1,1018.5,1,1018.5,100,1018.5,100,28.1,100,26.6,100,98,100,101,100,33.5,100,32.8,100
2021-10-31T09:10:00Z,44488,9302000,EAST CHEDABUCTO BAY,0,45.445,-60.9538,18,2021-10-31T09:10:00.000Z,110,2021-10-31T09:16:55.291Z,45.44552,100,-60.95445,100,9.7,100,12.3,100,12.5,100,0.0,100,3.6,100,,-1,,-1,,-1,,-1,,-1,,-1,,-1,,-1,1018.4,100,27.7,100,101,100,33.8,100,5,100,-0.9,1,8,1,1018.4,1,1018.4,100,1018.4,100,27.7,100,26.6,100,101,100,104,100,33.8,100,32.4,100
2021-10-31T09:20:00Z,44488,9302000,EAST CHEDABUCTO BAY,0,45.445,-60.9538,18,2021-10-31T09:20:00.000Z,110,2021-10-31T09:23:41.632Z,45.44552,100,-60.95446999999999,100,9.8,100,12.3,100,12.5,100,0.0,100,3.6,100,,-1,,-1,,-1,,-1,,-1,,-1,,-1,,-1,1018.3,100,30.6,100,98,100,37.1,100,5,100,-0.9,1,8,1,1018.3,1,1018.3,100,1018.3,100,30.6,100,28.8,100,98,100,101,100,37.1,100,37.1,100
2021-10-31T09:30:00Z,44488,9302000,EAST CHEDABUCTO BAY,0,45.445,-60.9538,18,2021-10-31T09:30:00.000Z,110,2021-10-31T09:33:55.703Z,45.44552,100,-60.95445,100,9.8,100,12.3,100,12.5,100,0.0,100,3.6,100,,-1,,-1,,-1,,-1,,-1,,-1,,-1,,-1,1018.4,100,28.1,100,101,100,32.8,100,5,100,-0.7,1,8,1,1018.4,1,1018.4,100,1018.4,100,28.1,100,26.3,100,101,100,104,100,32.8,100,31.7,100